| time (UTC) | temp F | wind direction | speed MPH | gust MPH | rain 1hr in | rain 24hr in | rain mn in | humidity % | barometer mb |
| 20260505001551 | 49 | 189 | 4.0 | 8.0 | 0.00 | 0.00 | 0.00 | 80 | 1006.8 |
| 20260505000050 | 49 | 177 | 6.0 | 11.0 | 0.00 | 0.00 | 0.00 | 79 | 1006.5 |
| 20260504234550 | 49 | 169 | 4.0 | 9.0 | 0.00 | 0.00 | 0.00 | 79 | 1006.3 |
| 20260504233058 | 50 | 174 | 5.0 | 7.0 | 0.00 | 0.00 | 0.00 | 78 | 1006.0 |
| 20260504231549 | 52 | 181 | 5.0 | 10.0 | 0.00 | 0.00 | 0.00 | 75 | 1005.8 |
| 20260504230048 | 54 | 187 | 1.0 | 5.0 | 0.00 | 0.00 | 0.00 | 73 | 1005.6 |
| 20260504224548 | 55 | 168 | 2.0 | 7.0 | 0.00 | 0.00 | 0.00 | 72 | 1005.4 |
| 20260504223054 | 56 | 172 | 4.0 | 6.0 | 0.00 | 0.00 | 0.00 | 70 | 1005.4 |
| 20260504221551 | 57 | 159 | 3.0 | 7.0 | 0.00 | 0.00 | 0.00 | 68 | 1005.4 |
| 20260504220104 | 58 | 197 | 2.0 | 6.0 | 0.00 | 0.00 | 0.00 | 66 | 1005.3 |
| 20260504214546 | 59 | 208 | 3.0 | 7.0 | 0.00 | 0.00 | 0.00 | 66 | 1005.1 |
| 20260504213055 | 60 | 197 | 2.0 | 8.0 | 0.00 | 0.00 | 0.00 | 62 | 1005.0 |
| 20260504211545 | 59 | 170 | 3.0 | 9.0 | 0.00 | 0.00 | 0.00 | 62 | 1005.2 |
| 20260504210047 | 60 | 178 | 2.0 | 10.0 | 0.00 | 0.00 | 0.00 | 61 | 1005.1 |
| 20260504204559 | 60 | 216 | 5.0 | 11.0 | 0.00 | 0.00 | 0.00 | 59 | 1004.9 |
| 20260504203044 | 59 | 192 | 4.0 | 10.0 | 0.00 | 0.00 | 0.00 | 58 | 1004.8 |
| 20260504201543 | 60 | 224 | 3.0 | 10.0 | 0.00 | 0.00 | 0.00 | 60 | 1004.9 |
| 20260504200044 | 59 | 189 | 6.0 | 9.0 | 0.00 | 0.02 | 0.00 | 65 | 1004.9 |
| 20260504194544 | 59 | 245 | 5.0 | 9.0 | 0.00 | 0.02 | 0.00 | 64 | 1004.9 |
| 20260504193038 | 58 | 182 | 6.0 | 9.0 | 0.00 | 0.02 | 0.00 | 66 | 1005.0 |
| 20260504191540 | 57 | 241 | 6.0 | 13.0 | 0.00 | 0.02 | 0.00 | 65 | 1005.3 |
| 20260504190038 | 56 | 245 | 5.0 | 13.0 | 0.00 | 0.06 | 0.00 | 66 | 1005.6 |
| 20260504184536 | 57 | 240 | 9.0 | 14.0 | 0.00 | 0.06 | 0.00 | 65 | 1005.7 |
| 20260504183033 | 54 | 245 | 6.0 | 15.0 | 0.00 | 0.06 | 0.00 | 67 | 1005.9 |
| 20260504181531 | 54 | 243 | 8.0 | 17.0 | 0.00 | 0.06 | 0.00 | 66 | 1005.7 |
| 20260504180031 | 54 | 233 | 7.0 | 17.0 | 0.00 | 0.14 | 0.00 | 66 | 1005.5 |
| 20260504174530 | 55 | 244 | 11.0 | 22.0 | 0.00 | 0.14 | 0.00 | 64 | 1005.2 |
| 20260504173030 | 54 | 211 | 8.0 | 18.0 | 0.00 | 0.14 | 0.00 | 66 | 1005.1 |
| 20260504171529 | 54 | 241 | 3.0 | 20.0 | 0.00 | 0.14 | 0.00 | 66 | 1005.2 |
| 20260504170127 | 53 | 187 | 9.0 | 17.0 | 0.00 | 0.14 | 0.00 | 69 | 1005.2 |
| 20260504081537 | 39 | 243 | 4.0 | 6.0 | 0.00 | 1.06 | 0.00 | 84 | 1006.6 |
| 20260504044558 | 40 | 270 | 5.0 | 10.0 | 0.00 | 1.19 | 1.19 | 81 | 1005.2 |
| 20260504043100 | 40 | 284 | 6.0 | 10.0 | 0.00 | 1.19 | 1.19 | 80 | 1005.2 |
| 20260504041557 | 40 | 273 | 6.0 | 11.0 | 0.00 | 1.19 | 1.19 | 81 | 1005.1 |
| 20260504040055 | 40 | 262 | 5.0 | 10.0 | 0.00 | 1.19 | 1.19 | 80 | 1005.0 |
| 20260504034553 | 41 | 296 | 8.0 | 13.0 | 0.00 | 1.19 | 1.19 | 76 | 1004.9 |
| 20260504033053 | 41 | 273 | 9.0 | 15.0 | 0.00 | 1.19 | 1.19 | 75 | 1004.7 |
| 20260504031552 | 41 | 276 | 8.0 | 13.0 | 0.00 | 1.19 | 1.19 | 75 | 1004.6 |
| 20260504030049 | 41 | 285 | 8.0 | 14.0 | 0.00 | 1.19 | 1.19 | 74 | 1004.4 |
| 20260504024552 | 42 | 300 | 7.0 | 14.0 | 0.00 | 1.19 | 1.19 | 75 | 1004.3 |
| 20260504023048 | 42 | 292 | 8.0 | 15.0 | 0.00 | 1.19 | 1.19 | 74 | 1004.2 |
| 20260504021547 | 42 | 296 | 8.0 | 14.0 | 0.00 | 1.19 | 1.19 | 75 | 1004.3 |
| 20260504020126 | 43 | 316 | 10.0 | 18.0 | 0.00 | 1.19 | 1.19 | 75 | 1004.1 |
| 20260504014559 | 43 | 287 | 11.0 | 18.0 | 0.00 | 1.19 | 1.19 | 75 | 1004.0 |
| 20260504013055 | 43 | 286 | 11.0 | 18.0 | 0.00 | 1.19 | 1.19 | 78 | 1003.7 |
| 20260504011546 | 43 | 305 | 9.0 | 17.0 | 0.00 | 1.19 | 1.19 | 81 | 1003.4 |
| 20260504010045 | 43 | 280 | 9.0 | 18.0 | 0.00 | 1.19 | 1.19 | 88 | 1003.2 |
| 20260504004600 | 43 | 264 | 9.0 | 13.0 | 0.00 | 1.19 | 1.19 | 91 | 1003.0 |
| 20260504003045 | 44 | 259 | 3.0 | 7.0 | 0.00 | 1.19 | 1.19 | 91 | 1002.6 |